Time,TemperatureF,DewpointF,PressureIn,WindDirection,WindDirectionDegrees,WindSpeedMPH,WindSpeedGustMPH,Humidity,HourlyPrecipIn,Conditions,Clouds,dailyrainin,SoftwareType,DateUTC
2013-05-05 00:21:00,50.0,33.0,29.67,West,260,2.0,-999.0,51,0.00,,,-99.99,,2013-05-05 07:21:00,
2013-05-05 00:32:00,50.0,33.0,29.67,West,260,2.0,-999.0,51,0.00,,,-99.99,,2013-05-05 07:32:00,
2013-05-05 00:42:00,50.0,33.0,29.67,West,260,2.0,-999.0,51,0.00,,,-99.99,,2013-05-05 07:42:00,
2013-05-05 00:52:00,50.0,33.0,29.67,West,260,2.0,-999.0,51,0.00,,,-99.99,,2013-05-05 07:52:00,
2013-05-05 01:21:00,49.0,31.0,29.68,North,0,0.0,-999.0,49,0.00,,,-99.99,,2013-05-05 08:21:00,
2013-05-05 01:31:00,49.0,31.0,29.68,North,0,0.0,-999.0,49,0.00,,,-99.99,,2013-05-05 08:31:00,
2013-05-05 01:42:00,49.0,31.0,29.68,North,0,0.0,-999.0,49,0.00,,,-99.99,,2013-05-05 08:42:00,
2013-05-05 01:52:00,49.0,31.0,29.68,North,0,0.0,-999.0,49,0.00,,,-99.99,,2013-05-05 08:52:00,
2013-05-05 02:21:00,51.0,22.0,29.67,North,0,0.0,-999.0,32,0.00,,,-99.99,,2013-05-05 09:21:00,
2013-05-05 02:32:00,51.0,22.0,29.67,North,0,0.0,-999.0,32,0.00,,,-99.99,,2013-05-05 09:32:00,
2013-05-05 02:42:00,51.0,22.0,29.67,North,0,0.0,-999.0,32,0.00,,,-99.99,,2013-05-05 09:42:00,
2013-05-05 02:52:00,51.0,22.0,29.67,North,0,0.0,-999.0,32,0.00,,,-99.99,,2013-05-05 09:52:00,
2013-05-05 03:22:00,51.0,17.0,29.66,ENE,60,1.0,-999.0,26,0.00,,,-99.99,,2013-05-05 10:22:00,
2013-05-05 03:32:00,51.0,17.0,29.66,ENE,60,1.0,-999.0,26,0.00,,,-99.99,,2013-05-05 10:32:00,
2013-05-05 04:21:00,52.0,20.0,29.66,SSW,210,5.0,-999.0,28,0.00,,,-99.99,,2013-05-05 11:21:00,
2013-05-05 04:32:00,52.0,20.0,29.66,SSW,210,5.0,-999.0,28,0.00,,,-99.99,,2013-05-05 11:32:00,
2013-05-05 04:42:00,52.0,20.0,29.66,SSW,210,5.0,-999.0,28,0.00,,,-99.99,,2013-05-05 11:42:00,
2013-05-05 04:51:00,52.0,20.0,29.66,SSW,210,5.0,-999.0,28,0.00,,,-99.99,,2013-05-05 11:51:00,
2013-05-05 05:21:00,51.0,24.0,29.66,SSW,210,4.0,-999.0,35,0.00,,,-99.99,,2013-05-05 12:21:00,
2013-05-05 05:32:00,51.0,24.0,29.66,SSW,210,4.0,-999.0,35,0.00,,,-99.99,,2013-05-05 12:32:00,
2013-05-05 05:42:00,51.0,24.0,29.66,SSW,210,4.0,-999.0,35,0.00,,,-99.99,,2013-05-05 12:42:00,
2013-05-05 05:52:00,51.0,24.0,29.66,SSW,210,4.0,-999.0,35,0.00,,,-99.99,,2013-05-05 12:52:00,
2013-05-05 06:21:00,48.0,29.0,29.68,North,0,0.0,-999.0,48,0.00,,,-99.99,,2013-05-05 13:21:00,
2013-05-05 06:32:00,48.0,29.0,29.68,North,0,0.0,-999.0,48,0.00,,,-99.99,,2013-05-05 13:32:00,
2013-05-05 06:42:00,48.0,29.0,29.68,North,0,0.0,-999.0,48,0.00,,,-99.99,,2013-05-05 13:42:00,
2013-05-05 06:52:00,48.0,29.0,29.68,North,0,0.0,-999.0,48,0.00,,,-99.99,,2013-05-05 13:52:00,
2013-05-05 07:21:00,45.0,35.0,29.70,North,0,0.0,-999.0,67,0.00,,,-99.99,,2013-05-05 14:21:00,
2013-05-05 07:31:00,45.0,35.0,29.70,North,0,0.0,-999.0,67,0.00,,,-99.99,,2013-05-05 14:31:00,
2013-05-05 07:42:00,45.0,35.0,29.70,North,0,0.0,-999.0,67,0.00,,,-99.99,,2013-05-05 14:42:00,
2013-05-05 07:51:00,45.0,35.0,29.70,North,0,0.0,-999.0,67,0.00,,,-99.99,,2013-05-05 14:51:00,
2013-05-05 08:21:00,43.0,38.0,29.67,SE,130,12.0,-999.0,82,0.00,,,-99.99,,2013-05-05 15:21:00,
2013-05-05 08:32:00,43.0,38.0,29.67,SE,130,12.0,-999.0,82,0.00,,,-99.99,,2013-05-05 15:32:00,
2013-05-05 08:43:00,43.0,38.0,29.67,SE,130,12.0,-999.0,82,0.00,,,-99.99,,2013-05-05 15:43:00,
2013-05-05 08:53:00,43.0,38.0,29.67,SE,130,12.0,-999.0,82,0.00,,,-99.99,,2013-05-05 15:53:00,
2013-05-05 09:42:00,41.0,39.0,29.71,NNE,20,1.0,-999.0,94,0.00,,,-99.99,,2013-05-05 16:42:00,
2013-05-05 09:52:00,41.0,39.0,29.71,NNE,20,1.0,-999.0,94,0.00,,,-99.99,,2013-05-05 16:52:00,
2013-05-05 10:42:00,41.0,40.0,29.73,WSW,240,9.0,-999.0,95,0.00,,,-99.99,,2013-05-05 17:42:00,
2013-05-05 10:52:00,41.0,40.0,29.73,WSW,240,9.0,-999.0,95,0.00,,,-99.99,,2013-05-05 17:52:00,
2013-05-05 11:42:00,44.0,41.0,29.75,South,180,6.0,-999.0,88,0.00,,,-99.99,,2013-05-05 18:42:00,
2013-05-05 11:51:00,44.0,41.0,29.75,South,180,6.0,-999.0,88,0.00,,,-99.99,,2013-05-05 18:51:00,
2013-05-05 12:41:00,46.0,41.0,29.77,ENE,70,5.0,-999.0,83,0.00,,,-99.99,,2013-05-05 19:41:00,
2013-05-05 12:52:00,46.0,41.0,29.77,ENE,70,5.0,-999.0,83,0.00,,,-99.99,,2013-05-05 19:52:00,
2013-05-05 13:41:00,46.0,41.0,29.80,South,180,12.0,-999.0,82,0.00,,,-99.99,,2013-05-05 20:41:00,
2013-05-05 13:52:00,46.0,41.0,29.80,South,180,12.0,-999.0,82,0.00,,,-99.99,,2013-05-05 20:52:00,
2013-05-05 14:42:00,48.0,40.0,29.80,North,10,4.0,-999.0,74,0.00,,,-99.99,,2013-05-05 21:42:00,
2013-05-05 14:52:00,48.0,40.0,29.80,North,10,4.0,-999.0,74,0.00,,,-99.99,,2013-05-05 21:52:00,
2013-05-05 15:42:00,47.0,41.0,29.80,ESE,120,8.0,-999.0,80,0.00,,,-99.99,,2013-05-05 22:42:00,
2013-05-05 15:52:00,47.0,41.0,29.80,ESE,120,8.0,-999.0,80,0.00,,,-99.99,,2013-05-05 22:52:00,
2013-05-05 16:42:00,46.0,42.0,29.80,North,0,0.0,-999.0,86,0.00,,,-99.99,,2013-05-05 23:42:00,
2013-05-05 16:52:00,46.0,42.0,29.80,North,0,0.0,-999.0,86,0.00,,,-99.99,,2013-05-05 23:52:00,
2013-05-05 17:41:00,45.0,42.0,29.81,East,100,3.0,-999.0,89,0.00,,,-99.99,,2013-05-06 00:41:00,
2013-05-05 17:51:00,45.0,42.0,29.81,East,100,3.0,-999.0,89,0.00,,,-99.99,,2013-05-06 00:51:00,
2013-05-05 18:41:00,44.0,42.0,29.81,North,0,0.0,-999.0,93,0.00,,,-99.99,,2013-05-06 01:41:00,
2013-05-05 18:52:00,44.0,42.0,29.81,North,0,0.0,-999.0,93,0.00,,,-99.99,,2013-05-06 01:52:00,
2013-05-05 19:42:00,43.0,42.0,29.81,SSW,210,2.0,-999.0,95,0.00,,,-99.99,,2013-05-06 02:42:00,
2013-05-05 19:51:00,43.0,42.0,29.81,SSW,210,2.0,-999.0,95,0.00,,,-99.99,,2013-05-06 02:51:00,
2013-05-05 20:42:00,43.0,42.0,29.83,SE,140,3.0,-999.0,96,0.00,,,-99.99,,2013-05-06 03:42:00,
2013-05-05 20:52:00,43.0,42.0,29.83,SE,140,3.0,-999.0,96,0.00,,,-99.99,,2013-05-06 03:52:00,
2013-05-05 21:42:00,42.0,41.0,29.83,SE,140,9.0,-999.0,97,0.00,,,-99.99,,2013-05-06 04:42:00,
2013-05-05 21:52:00,42.0,41.0,29.83,SE,140,9.0,-999.0,97,0.00,,,-99.99,,2013-05-06 04:52:00,
2013-05-05 22:42:00,42.0,41.0,29.82,WSW,240,6.0,-999.0,98,0.00,,,-99.99,,2013-05-06 05:42:00,
2013-05-05 22:52:00,42.0,41.0,29.82,WSW,240,6.0,-999.0,98,0.00,,,-99.99,,2013-05-06 05:52:00,
2013-05-05 23:41:00,42.0,41.0,29.82,SSE,160,4.0,-999.0,98,0.00,,,-99.99,,2013-05-06 06:41:00,
2013-05-05 23:52:00,42.0,41.0,29.82,SSE,160,4.0,-999.0,98,0.00,,,-99.99,,2013-05-06 06:52:00,